Location: Most
(50.5133°N, 13.6207°E)
Time: 01:04:11
(UTC+02:00)

Nauka - Pass Details

Date: 26 September 2021
Orbit: 417 x 423 km, 51.6° (Epoch: 17 October)

Event Time Altitude Azimuth Distance (km) Brightness Sun altitude
Rises 19:19:24 0° 263° (W) 2,360 ? -4.8°
Reaches altitude 10° 19:21:30 10° 265° (W) 1,498 ? -5.1°
Maximum altitude 19:24:52 77° 352° (N) 435 ? -5.7°
Drops below altitude 10° 19:28:14 10° 79° (ENE) 1,502 ? -6.2°
Enters shadow 19:28:43 - 79° (E) 1,698 ? -6.3°
